Weather History for PAPB - January, 2013

Change the Weather History Date:

Thursday, January 17, 2013

  Actual Average Record
Temperature  
Mean Temperature 21 °F -  
Max Temperature 23 °F 31 °F 39 °F (2003)
Min Temperature 19 °F 25 °F 12 °F (1998)
Degree Days  
Heating Degree Days 44    
Moisture  
Dew Point 16 °F    
Average Humidity 86    
Maximum Humidity 93    
Minimum Humidity 81    
Precipitation  
Precipitation 0.00 in - - ()
Sea Level Pressure  
Sea Level Pressure 29.93 in    
Wind  
Wind Speed 29 mph (ENE)    
Max Wind Speed 44 mph    
Max Gust Speed 50 mph    
Visibility 4 miles    
Events Fog , Snow    
Averages and records for this station are not official NWS values.
T = Trace of Precipitation, MM = Missing Value Source: NWS Daily Summary

Daily Weather History Graph

Daily Weather History Graph

Search for Another Location

Airport or City:

Trip Planner

Search our weather history database for the weather conditions in past years. The results will help you decide how hot, cold, wet, or windy it might be!

Date:

Astronomy

Jan. 17, 2013 Rise Set
Actual Time 10:39 AM AKST 6:18 PM AKST
Civil Twilight 9:54 AM AKST 7:03 PM AKST
Nautical Twilight 9:07 AM AKST 7:51 PM AKST
Astronomical Twilight 8:22 AM AKST 8:36 PM AKST
Moon 12:26 PM AKST (1/17) 1:45 AM AKST (1/17)
Length of Visible Light 9h 08m
Length of Day
7h 38m
Waxing Crescent, 39% of the Moon is Illuminated
Jan 17
Waxing Crescent
Jan 18
First Quarter
Jan 26
Full
Feb 3
Last Quarter
Feb 9
New

Hourly Weather History & Observations

Time (AKST) Temp. Windchill Dew Point Humidity Pressure Visibility Wind Dir Wind Speed Gust Speed Precip Events Conditions
12:53 AM 23.0 °F 8.0 °F 18.0 °F 81% 30.04 in 10.0 mi ENE 20.7 mph - N/A   Mostly Cloudy
1:53 AM 23.0 °F 7.6 °F 19.0 °F 85% 30.03 in 10.0 mi ENE 21.9 mph - N/A   Overcast
2:53 AM 23.0 °F 7.6 °F 18.0 °F 81% 30.02 in 10.0 mi East 21.9 mph 29.9 mph N/A   Overcast
3:53 AM 21.9 °F 5.5 °F 18.0 °F 85% 30.01 in 10.0 mi ENE 24.2 mph - N/A   Overcast
4:04 AM 21.2 °F 3.3 °F 17.6 °F 86% 30.03 in 10.0 mi ENE 28.8 mph 33.4 mph N/A   Overcast
4:18 AM 21.2 °F 3.9 °F 17.6 °F 86% 30.02 in 10.0 mi ENE 26.5 mph 33.4 mph N/A   Overcast
4:53 AM 21.9 °F 3.7 °F 18.0 °F 85% 29.99 in 10.0 mi ENE 31.1 mph 35.7 mph N/A   Overcast
5:53 AM 21.0 °F 3.3 °F 17.1 °F 85% 29.99 in 10.0 mi East 27.6 mph 36.8 mph N/A   Overcast
6:53 AM 21.0 °F 2.4 °F 17.1 °F 85% 29.97 in 8.0 mi East 31.1 mph 38.0 mph N/A   Overcast
7:27 AM 19.4 °F -0.8 °F 15.8 °F 86% 29.98 in 9.0 mi ENE 35.7 mph 39.1 mph N/A   Overcast
7:53 AM 19.9 °F 1.3 °F 16.0 °F 85% 29.95 in 9.0 mi ENE 29.9 mph 36.8 mph N/A   Overcast
8:36 AM 19.4 °F 0.5 °F 15.8 °F 86% 29.98 in 9.0 mi ENE 29.9 mph 39.1 mph N/A   Overcast
8:53 AM 19.9 °F 1.3 °F 16.0 °F 85% 29.96 in 9.0 mi ENE 29.9 mph 36.8 mph N/A   Overcast
9:03 AM 19.4 °F 0.5 °F 15.8 °F 86% 29.98 in 10.0 mi East 29.9 mph 38.0 mph N/A   Overcast
9:53 AM 19.9 °F 1.0 °F 16.0 °F 85% 29.95 in 6.0 mi ENE 31.1 mph 36.8 mph 0.00 in   Overcast
10:53 AM 19.0 °F 0.6 °F 16.0 °F 88% 29.96 in 4.0 mi East 27.6 mph 36.8 mph 0.00 in   Overcast
11:03 AM 19.4 °F 1.4 °F 15.8 °F 86% 29.99 in 2.5 mi East 26.5 mph 36.8 mph N/A   Overcast
11:13 AM 19.4 °F 0.8 °F 15.8 °F 86% 29.99 in 4.0 mi East 28.8 mph 38.0 mph N/A   Overcast
11:39 AM 19.4 °F 0.8 °F 15.8 °F 86% 29.98 in 2.5 mi East 28.8 mph 36.8 mph N/A   Overcast
11:49 AM 19.4 °F 0.2 °F 15.8 °F 86% 29.98 in 1.5 mi ENE 31.1 mph 40.3 mph 0.00 in Snow Light Snow
11:53 AM 19.0 °F 0.6 °F 16.0 °F 88% 29.96 in 1.0 mi East 27.6 mph 40.3 mph 0.00 in Snow Light Snow
12:02 PM 19.4 °F 2.1 °F 15.8 °F 86% 29.99 in 1.8 mi ENE 24.2 mph 35.7 mph 0.00 in   Overcast
12:09 PM 19.4 °F 1.1 °F 15.8 °F 86% 29.98 in 3.0 mi ENE 27.6 mph 35.7 mph 0.00 in   Overcast
12:18 PM 19.4 °F 1.4 °F 15.8 °F 86% 29.98 in 2.5 mi ENE 26.5 mph 39.1 mph 0.00 in   Overcast
12:27 PM 19.4 °F 1.1 °F 15.8 °F 86% 29.98 in 3.0 mi ENE 27.6 mph 34.5 mph 0.00 in   Overcast
12:36 PM 19.4 °F 1.4 °F 15.8 °F 86% 29.99 in 2.0 mi ENE 26.5 mph 34.5 mph 0.00 in   Overcast
12:53 PM 19.0 °F 0.0 °F 16.0 °F 88% 29.96 in 3.0 mi East 29.9 mph 35.7 mph 0.00 in   Overcast
1:24 PM 19.4 °F 1.1 °F 15.8 °F 86% 29.98 in 5.0 mi East 27.6 mph 34.5 mph N/A   Overcast
1:48 PM 19.4 °F 0.2 °F 15.8 °F 86% 29.95 in 2.5 mi ENE 31.1 mph 38.0 mph 0.00 in Snow Light Snow
1:53 PM 19.9 °F 1.3 °F 16.0 °F 85% 29.91 in 1.8 mi ENE 29.9 mph 38.0 mph 0.00 in Snow Light Snow
2:06 PM 19.4 °F -0.3 °F 15.8 °F 86% 29.94 in 1.0 mi ENE 33.4 mph 40.3 mph 0.00 in Snow Light Snow
2:14 PM 19.4 °F -0.0 °F 15.8 °F 86% 29.93 in 1.8 mi ENE 32.2 mph 41.4 mph 0.00 in Snow Light Snow
2:24 PM 19.4 °F -0.0 °F 15.8 °F 86% 29.94 in 1.8 mi East 32.2 mph 42.6 mph 0.00 in Snow Light Snow
2:29 PM 19.4 °F -0.3 °F 15.8 °F 86% 29.94 in 1.0 mi East 33.4 mph 41.4 mph 0.00 in Snow Light Snow
2:38 PM 19.4 °F -0.3 °F 15.8 °F 86% 29.92 in 0.8 mi ENE 33.4 mph 38.0 mph 0.00 in Snow Light Snow
2:53 PM 19.9 °F -0.8 °F 17.1 °F 89% 29.88 in 0.2 mi ENE 39.1 mph 46.0 mph 0.00 in Fog , Snow Light Snow
3:07 PM 19.4 °F -1.1 °F 17.6 °F 93% 29.91 in 1.2 mi ENE 36.8 mph 43.7 mph 0.00 in Snow Light Snow
3:14 PM 19.4 °F -1.1 °F 15.8 °F 86% 29.91 in 0.8 mi ENE 36.8 mph 43.7 mph 0.00 in Snow Light Snow
3:29 PM 19.4 °F -0.3 °F 15.8 °F 86% 29.91 in 1.2 mi ENE 33.4 mph 42.6 mph 0.00 in Snow Light Snow
3:36 PM 19.4 °F -0.6 °F 17.6 °F 93% 29.91 in 0.8 mi ENE 34.5 mph 43.7 mph 0.00 in Snow Light Snow
3:46 PM 19.4 °F -0.6 °F 15.8 °F 86% 29.90 in 1.2 mi ENE 34.5 mph 43.7 mph 0.00 in Snow Light Snow
3:53 PM 19.0 °F -1.1 °F 16.0 °F 88% 29.86 in 1.2 mi ENE 34.5 mph 44.9 mph 0.00 in Snow Light Snow
4:04 PM 19.4 °F -2.4 °F 15.8 °F 86% 29.86 in 0.8 mi ENE 43.7 mph 49.5 mph 0.00 in Snow Light Snow
4:20 PM 19.4 °F -1.6 °F 15.8 °F 86% 29.88 in 1.0 mi ENE 39.1 mph 47.2 mph 0.00 in Snow Light Snow
4:28 PM 19.4 °F -1.8 °F 17.6 °F 93% 29.88 in 0.8 mi ENE 40.3 mph 48.3 mph 0.00 in Snow Light Snow
4:53 PM 19.9 °F -1.0 °F 16.0 °F 85% 29.85 in 0.8 mi ENE 40.3 mph 49.5 mph 0.00 in Snow Light Snow
5:13 PM 19.4 °F -1.1 °F 15.8 °F 86% 29.89 in 1.0 mi ENE 36.8 mph 46.0 mph 0.00 in Snow Light Snow
5:21 PM 19.4 °F -1.6 °F 15.8 °F 86% 29.89 in 1.2 mi ENE 39.1 mph 47.2 mph 0.00 in Snow Light Snow
5:53 PM 19.0 °F -1.8 °F 16.0 °F 88% 29.85 in 1.2 mi ENE 38.0 mph 47.2 mph 0.00 in Snow Light Snow
6:12 PM 19.4 °F -0.6 °F 15.8 °F 86% 29.89 in 1.0 mi ENE 34.5 mph 44.9 mph 0.00 in Snow Light Snow
6:19 PM 19.4 °F -0.8 °F 15.8 °F 86% 29.89 in 1.5 mi ENE 35.7 mph 44.9 mph 0.00 in Snow Light Snow
6:28 PM 19.4 °F -0.6 °F 15.8 °F 86% 29.90 in 3.0 mi ENE 34.5 mph 44.9 mph 0.00 in Snow Light Snow
6:42 PM 19.4 °F -0.8 °F 15.8 °F 86% 29.90 in 4.0 mi ENE 35.7 mph 42.6 mph 0.00 in Snow Light Snow
6:50 PM 19.4 °F -0.0 °F 15.8 °F 86% 29.90 in 1.8 mi ENE 32.2 mph 42.6 mph 0.00 in Snow Light Snow
6:53 PM 19.0 °F -0.8 °F 16.0 °F 88% 29.88 in 1.8 mi ENE 33.4 mph 42.6 mph 0.00 in Snow Light Snow
7:03 PM 19.4 °F -0.3 °F 15.8 °F 86% 29.91 in 2.5 mi ENE 33.4 mph 43.7 mph 0.00 in Snow Light Snow
7:11 PM 19.4 °F -0.3 °F 15.8 °F 86% 29.91 in 4.0 mi ENE 33.4 mph 41.4 mph 0.00 in Snow Light Snow
7:33 PM 19.4 °F 0.2 °F 15.8 °F 86% 29.90 in 4.0 mi ENE 31.1 mph 42.6 mph 0.00 in Snow Light Snow
7:40 PM 19.4 °F -0.8 °F 15.8 °F 86% 29.90 in 4.0 mi ENE 35.7 mph 43.7 mph 0.00 in Snow Light Snow
7:53 PM 19.0 °F -0.8 °F 15.1 °F 85% 29.88 in 3.0 mi ENE 33.4 mph 41.4 mph 0.00 in Snow Light Snow
8:53 PM 19.0 °F -0.5 °F 16.0 °F 88% 29.88 in 3.0 mi ENE 32.2 mph 40.3 mph 0.00 in Snow Light Snow
9:53 PM 19.9 °F 0.2 °F 16.0 °F 85% 29.87 in 3.0 mi ENE 34.5 mph 41.4 mph 0.00 in   Overcast
10:53 PM 19.0 °F -1.6 °F 16.0 °F 88% 29.85 in 2.5 mi ENE 36.8 mph 43.7 mph 0.00 in Snow Light Snow
11:53 PM 19.0 °F -2.1 °F 16.0 °F 88% 29.84 in 2.5 mi ENE 39.1 mph 44.9 mph 0.00 in Snow Light Snow